EHI
0 0 0 0 0 0 0 0 0 0 0 0 0 0 0 0 0 0 0 0 0 0 0 0 0 0 0 0 0 0 0 0 0 0 0 0 0 0 0 0 0 0 0 0
0 0 0 0 0 0 0 0 0 0 0 0 0 0 0 0 0 0 0 0 0 0 0 0 0 0 0 0 0 0 0 0 0 0 0 0 0 0 0 0 0 0 0 0
0 0 0 0 0 0 0 0 0 0 0 0 0 0 0 0 0 0 0 0 0 0 0 0 0 0 0 0 0 0 0 0 0 0 0 0 0 0 0 0 0 0 0 0
0 0 0 0 0 0 0 0 0 0 0 0 0 0 0 0 0 0 0 0 0 0 0 0 0 0 0 0 0 0 0 0 0 0 0 0 0 0 0 0 0 0 0 0
0 0 0 0 0 0 0 0 0 0 0 0 0 0 0 0 0 0 0 0 0 0 0 0 0 0 0 0 0 0 0 0 0 0 0 0 0 0 0 0 0 0 0 0
0 0 0 0 0 0 0 0 0 0 0 0 0 0 0 0 0 0 0 0 0 0 0 0 0 0 0 0 0 0 0 0 0 0 0 0 0 0 0 0 0 0 0 0
0 0 0 0 0 0 0 0 0 0 0 0 0 0 0 0 0 0 0 0 0 0 0 0 0 0 0 0 0 0 0 0 0 0 0 0 0 0 0 0 0 0 0 0
0 0 0 0 0 0 0 0 0 0 0 0 0 0 0 0 0 0 0 0 0 0 0 0 0 0 0 0 0 0 0 0 0 0 0 0 0 0 0 0 0 0 0 0
0 0 0 0 0 0 0 0 0 0 0 0 0 0 0 0 0 0 0 0 0 0 0 0 0 0 0 0 0 0 0 0 0 0 0 0 0 0 0 0 0 0 0 0
0 0 0 0 0 0 0 0 0 0 0 0 0 0 0 0 0 0 0 0 0 0 0 0 0 0 0 0 0 0 0 0 0 0 0 0 0 0 0 0 0 0 0 0
0 0 0 0 0 0 0 0 0 0 0 0 0 0 0 0 0 0 0 0 0 0 0 0 0 0 0 0 0 0 0 0 0 0 0 0 0 0 0 0 0 0 0 0
0 0 0 0 0 0 0 0 0 0 0 0 0 0 0 0 0 0 0 0 0 0 0 0 0 0 0 0 0 0 0 0 0 0 0 0 0 0 0 0 0 0 0 0
0 0 0 0 0 0 0 0 0 0 0 0 0 0 0 0 0 0 0 0 0 0 0 0 0 0 0 0 0 0 0 0 0 0 0 0 0 0 0 0 0 0 0 0
0 0 0 0 0 0 0 0 0 0 0 0 0 0 0 0 0 0 0 0 0 0 0 0 0 0 0 0 0 0 0 0 0 0 0 0 0 0 0 0 0 0 0 0
0 0 0 0 0 0 0 0 0 0 0 0 0 0 0 0 0 0 0 0 0 0 0 0 0 0 0 0 0 0 0 0 0 0 0 0 0 0 0 0 0 0 0 0
0 0 0 0 0 0 0 0 0 0 0 0 0 0 0 0 0 0 0 0 0 0 0 0 0 0 0 0 0 0 0 0 0 0 0 0 0 0 0 0 0 0 0 0
0 0 0 0 0 0 0 0 0 0 0 0 0 0 0 0 0 0 0 0 0 0 0 0 0 0 0 0 0 0 0 0 0 0 0 0 0 0 0 0 0 0 0 0
0 0 0 0 0 0 0 0 0 0 0 0 0 0 0 0 0 0 0 0 0 0 0 0 0 0 0 0 0 0 0 0 0 0 0 0 0 0 0 0 0 0 0 0
0 0 0 0 0 0 0 0 0 0 0 0 0 0 0 0 0 0 0 0 0 0 0 0 0 0 0 0 0 0 0 0 0 0 0 0 0 0 0 0 0 0 0 0
0 0 0 0 0 0 0 0 0 0 0 0 0 0 0 0 0 0 0 0 0 0 0 0 0 0 0 0 0 0 0 0 0 0 0 0 0 0 0 0 0 0 0 0
0 0 0 0 0 0 0 0 0 0 0 0 0 0 0 0 0 0 0 0 0 0 0 0 0 0 0 0 0 0 0 0 0 0 0 0 0 0 0 0 0 0 0 0
0 0 0 0 0 0 0 0 0 0 0 0 0 0 0 0 0 0 0 0 0 0 0 0 0 0 0 0 0 0 0 0 0 0 0 0 0 0 0 0 0 0 0 0
0 0 0 0 0 0 0 0 0 0 0 0 0 0 0 0 0 0 0 0 0 0 0 0 0 0 0 0 0 0 0 0 0 0 0 0 0 0 0 0 0 0 0 0
0 0 0 0 0 0 0 0 0 0 0 0 0 0 0 0 0 0 0 0 0 0 0 0 0 0 0 0 0 0 0 0 0 0 0 0 0 0 0 0 0 0 0 0
0 0 0 0 0 0 0 0 0 0 0 0 0 0 0 0 0 0 0 0 0 0 0 0 0 0 0 0 0 0 0 0 0 0 0 0 0 0 0 0 0 0 0 0
0 0 0 0 0 0 0 0 0 0 0 0 0 0 0 0 0 0 0 0 0 0 0 0 0 0 0 0 0 0 0 0 0 0 0 0 0 0 0 0 0 0 0 0
0 0 0 0 0 0 0 0 0 0 0 0 0 0 0 0 0 0 0 0 0 0 0 0 0 0 0 0 0 0 0 0 0 0 0 0 0 0 0 0 0 0 0 0
Wind_Speed
4 2 1 3 4 6 8 8 8 7 7 9 5 3 2 2 2 2 2 2 2 2 2 2 2 2 2 2 2 3 3 3 2 2 2 2 1 1 1 1 1 1 2 2
4 3 2 4 6 7 8 7 8 7 9 5 2 0 1 2 3 3 2 2 2 2 2 2 2 2 2 2 2 2 2 2 2 2 1 1 1 1 0 1 1 1 2 3
3 3 3 6 7 8 5 5 5 8 8 1 0 2 2 3 4 4 3 2 2 2 2 2 1 2 2 2 2 2 2 1 1 1 1 1 1 0 1 1 1 2 2 3
1 2 6 6 0 3 4 2 3 3 2 2 3 1 1 1 3 2 2 2 2 2 2 2 2 2 2 2 3 2 2 1 1 1 1 0 0 0 1 1 1 2 3 3
1 2 7 6 2 1 3 4 3 5 4 2 1 3 3 2 1 1 1 2 2 2 2 3 2 3 3 3 3 2 2 1 0 1 1 0 0 1 1 1 1 2 3 3
2 2 6 5 2 1 2 4 3 3 3 2 1 0 3 2 2 2 2 3 3 3 3 3 2 3 4 3 3 1 0 0 0 1 0 0 1 1 1 1 2 3 3 3
3 4 7 4 3 1 2 5 2 2 3 3 3 3 1 2 2 3 3 3 4 4 3 2 2 3 4 3 1 0 0 1 1 1 0 0 1 1 1 1 2 2 3 4
3 4 8 2 2 3 4 2 1 0 1 2 2 1 2 2 3 3 3 3 3 4 3 2 2 3 3 1 0 1 1 1 1 1 1 1 1 1 1 1 2 3 3 4
6 6 2 1 2 2 1 1 1 0 0 3 3 2 2 2 2 3 3 3 3 4 3 2 2 3 2 0 1 1 2 1 1 1 1 1 1 2 2 1 2 3 3 3
3 5 4 3 3 3 2 2 2 0 1 2 2 2 2 2 2 2 2 2 2 3 3 2 2 2 1 0 1 2 1 0 1 1 1 2 1 2 2 2 2 3 3 4
4 5 4 3 3 3 2 2 2 2 1 2 3 2 2 2 2 2 2 2 2 2 2 1 1 1 1 1 1 1 0 0 1 1 2 2 2 2 3 3 4 4 3 4
5 4 3 4 4 3 2 2 1 2 2 2 2 2 2 2 2 2 2 2 2 2 1 1 1 2 2 1 1 1 1 1 1 1 1 2 2 3 5 6 8 9 8 7
4 3 2 3 4 4 2 2 2 2 2 3 3 2 3 2 2 2 2 2 1 1 1 1 2 2 2 2 1 1 1 2 2 2 2 2 2 3 4 5 7 8 10 11
2 2 2 2 2 3 3 3 4 5 4 4 3 3 3 3 3 3 2 1 1 1 1 2 2 3 3 2 1 1 2 3 3 2 2 2 3 3 3 4 5 5 7 10
3 2 2 1 2 3 3 4 5 4 4 4 3 3 3 2 2 2 2 2 2 2 2 2 2 3 3 2 2 2 2 2 2 2 2 2 3 3 3 4 4 5 5 7
3 2 1 1 2 2 3 3 3 2 2 2 3 2 2 2 2 2 2 2 2 1 2 2 3 3 3 2 2 2 2 4 4 2 2 2 3 3 3 4 4 4 5 5
1 2 1 1 1 1 1 1 1 1 1 2 2 2 2 2 2 2 2 2 1 2 2 2 3 3 3 2 2 2 2 3 5 3 2 3 3 3 4 4 4 5 5 7
1 1 1 1 1 0 1 1 2 1 1 1 1 2 2 1 1 1 2 2 3 3 3 3 3 3 3 3 2 2 2 2 3 3 3 3 4 3 4 4 5 6 6 7
2 2 2 2 1 1 1 1 1 1 1 1 1 1 1 1 1 1 2 2 2 3 4 3 5 3 3 4 4 2 2 3 3 3 3 5 5 4 4 5 5 6 6 6
3 3 3 3 3 2 1 1 1 1 2 1 1 1 1 1 1 1 2 2 2 3 4 4 4 3 3 4 5 2 2 3 3 3 3 3 4 4 5 5 6 6 6 6
2 2 2 2 2 2 2 1 1 1 1 1 1 1 1 2 1 1 1 3 3 3 3 6 4 3 4 4 4 2 3 3 4 4 4 4 4 5 5 6 6 6 6 6
1 1 1 2 2 2 2 1 1 1 1 1 1 1 1 2 2 2 2 3 3 6 4 3 3 6 6 4 2 2 3 3 4 3 4 4 5 5 6 6 6 6 6 6
1 1 1 1 1 1 2 2 1 1 1 1 1 1 2 2 2 2 3 3 3 6 4 3 7 10 9 3 2 3 3 4 4 4 4 5 5 5 6 6 6 6 6 7
1 1 1 1 1 2 2 2 2 1 1 2 2 2 2 2 2 2 3 6 8 8 4 6 10 11 8 2 2 3 3 4 5 5 5 5 5 5 6 6 6 6 7 8
2 2 1 1 1 1 1 2 2 2 2 2 3 2 2 1 2 3 3 4 7 7 4 7 10 10 5 3 3 4 4 4 5 5 4 5 5 5 6 6 6 7 7 7
1 1 0 0 0 1 1 1 1 2 2 2 3 2 2 2 2 3 3 4 5 7 5 4 5 6 4 4 4 4 4 6 6 5 5 6 6 6 6 7 8 7 7 7
2 1 1 1 1 1 1 1 1 2 2 2 3 3 3 3 3 3 3 4 4 4 4 4 4 4 4 4 5 5 5 5 5 5 5 5 6 6 6 8 7 7 7 7
Wind_Direction
261 272 211 233 230 198 200 206 214 233 234 260 254 243 231 179 140 123 118 119 129 136 141 134 126 127 133 136 139 145 149 159 177 176 171 167 168 176 198 233 256 261 278 287
281 271 257 283 262 226 226 227 231 251 264 269 280 174 176 179 169 171 174 159 141 135 131 137 144 146 133 130 133 133 146 160 154 143 150 164 177 170 199 266 278 275 273 280
271 307 335 276 246 212 207 207 195 227 242 218 247 229 211 198 188 190 185 167 157 156 151 143 145 146 144 138 122 122 129 129 135 140 150 176 187 155 249 271 281 284 283 281
271 23 245 249 339 186 192 231 216 235 257 243 231 244 270 191 184 197 182 164 156 141 127 109 104 106 104 102 108 113 107 99 117 128 132 150 162 211 272 276 283 285 289 287
170 234 274 294 292 168 193 273 245 226 248 272 357 36 348 2 119 183 170 150 143 133 125 109 102 105 102 92 91 94 95 89 71 129 140 166 247 276 284 292 297 292 292 290
166 209 250 272 303 292 130 289 290 197 219 226 98 49 279 358 68 80 89 103 106 101 98 97 94 105 105 100 92 87 78 54 41 56 87 239 259 280 299 291 288 298 304 300
206 231 265 286 311 61 160 266 310 195 203 181 189 217 218 70 75 92 95 101 103 103 99 98 101 107 104 100 107 140 68 55 48 40 8 285 322 326 316 309 311 303 300 301
177 212 258 317 98 172 232 303 334 276 194 157 157 119 97 90 95 99 95 93 100 100 88 74 89 108 104 100 89 80 76 63 38 13 353 7 359 325 323 312 312 305 303 304
196 218 274 179 203 252 293 300 307 307 124 135 135 143 123 108 102 100 100 95 96 104 90 61 69 107 121 136 72 92 82 57 13 360 356 349 324 308 317 312 296 297 295 295
249 268 274 277 292 314 325 301 317 62 140 135 140 144 124 117 98 95 92 91 89 93 88 54 44 68 118 64 81 98 96 17 349 346 335 330 314 298 290 284 282 284 284 289
263 282 304 300 297 305 329 0 16 21 55 125 136 143 140 125 104 97 87 75 85 92 92 52 31 31 24 46 87 95 77 313 319 312 300 303 300 278 277 257 261 282 277 279
252 263 257 288 332 347 353 356 18 50 43 53 116 137 120 117 107 101 90 75 70 71 62 20 13 353 347 2 110 148 277 295 289 286 288 291 293 301 299 296 302 302 302 301
266 309 300 302 345 8 17 25 43 63 77 68 62 87 98 96 85 82 78 71 64 50 29 7 356 337 332 333 334 220 249 272 276 283 285 288 291 298 307 314 312 311 312 312
311 342 321 327 344 7 37 52 62 61 59 64 68 72 78 75 72 71 57 43 44 39 21 5 348 325 322 324 313 283 270 277 285 269 271 277 281 285 290 299 308 309 312 312
335 325 266 323 25 39 48 62 64 54 49 48 55 65 73 79 73 52 30 34 46 38 17 5 344 323 330 328 318 298 285 276 273 269 273 276 279 283 283 286 289 296 303 309
330 3 61 60 36 42 52 57 66 46 39 39 40 42 46 70 73 53 36 36 47 4 338 335 318 314 326 326 321 308 291 292 297 283 277 281 280 279 282 284 287 290 293 297
329 311 316 333 2 28 31 35 55 37 37 39 27 37 52 65 61 39 18 10 359 323 314 310 306 316 323 321 311 300 294 294 302 299 281 276 274 274 277 281 285 288 286 292
282 281 245 201 192 103 38 38 42 37 28 12 36 54 59 59 24 347 346 351 350 337 322 311 307 318 325 320 308 298 298 291 285 280 282 281 282 279 280 281 284 287 291 297
27 44 51 53 66 96 81 50 28 20 22 37 55 52 25 356 338 337 342 347 338 323 321 318 323 337 322 311 320 302 301 296 294 291 287 292 298 292 287 285 285 285 288 292
29 43 51 47 50 64 61 39 38 27 18 32 44 34 6 342 335 330 328 307 284 277 294 309 319 316 307 300 312 309 306 298 292 292 291 289 290 290 288 287 287 286 287 288
33 39 46 50 44 40 41 47 51 18 2 22 37 339 324 329 332 327 321 309 306 301 303 315 322 305 297 305 317 309 298 292 288 286 288 288 289 289 289 290 289 289 290 291
30 45 45 52 56 30 19 28 29 11 6 5 1 357 344 329 328 316 282 268 293 311 321 308 301 300 312 322 316 302 296 290 286 285 285 286 286 287 287 289 289 289 288 288
38 50 57 54 57 36 20 14 3 356 337 329 325 314 301 296 296 294 302 301 301 310 321 303 306 314 323 330 307 295 292 290 287 284 282 282 283 283 285 286 285 287 288 289
60 56 52 52 70 64 19 351 351 346 331 318 312 304 297 304 304 279 276 307 316 319 319 311 318 320 329 332 304 293 288 286 284 281 281 282 283 284 284 285 286 287 287 289
63 58 58 66 58 18 350 351 354 349 341 330 322 316 302 273 277 300 307 306 313 323 320 317 320 324 329 311 300 293 290 285 285 287 284 286 284 284 284 285 286 288 288 287
64 58 33 354 338 337 346 349 338 328 331 327 325 323 320 313 301 301 306 309 310 317 318 311 313 316 312 303 296 293 290 295 300 297 288 286 285 284 285 286 287 286 286 285
57 49 41 27 15 9 359 342 327 323 323 318 316 320 321 320 317 316 315 314 314 312 309 308 308 304 302 299 297 295 293 291 289 288 287 285 284 283 285 285 286 286 286 286